Home   Weather   Perth   Past weeks

Flag for Australia Past Weather in Perth, Western Australia, Australia — Yesterday and Last 2 Weeks

Now
88 °F

Passing clouds.


Feels Like: 85 °F
Forecast: 60 / 74 °F
Wind: 8 mph from Northeast

Location: Belmont Perth Airport

Current Time: Jan 18, 2017 at 12:30:33 pm

Latest Report: Jan 18, 2017 at 11:30 am


Visibility: N/A

Pressure: 29.80 "Hg

Humidity: 27%

Dew Point: 50 °F

Location of PerthLocation

Past Weather in Perth — Graph

°F

Perth Temperature Yesterday

Maximum temperature yesterday: 88 °F (at 3:30 pm)
Minimum temperature yesterday: 61 °F (at 5:00 am)
Average temperature yesterday: 74 °F

High & Low Weather Summary for the Past Weeks

 TemperatureHumidityPressure
High109 °F (Jan 4, 12:30 pm)94% (Jan 7, 2:00 am)29.98 "Hg (Jan 7, 2:00 am)
Low46 °F (Jan 13, 5:30 am)6% (Jan 4, 12:30 pm)29.59 "Hg (Jan 11, 5:30 pm)
Average75 °F46%29.80 "Hg
* Reported Jan 3 11:30 am — Jan 18 11:00 am, Perth, Weather by CustomWeather, © 2017

Note: Actual official high and low records may vary slightly from our data, if they occured in-between our weather recording intervals... More about our weather records

Advertising

Perth Weather History for the Previous 24 Hours

Scroll right to see more
 ConditionsComfort  
Time TempWeatherWind HumidityBarometerVisibility
11:00 am
Wed, Jan 18
82 °FSunny.12 mph32%29.80 "Hg10 mi
10:30 am81 °FSunny.12 mph34%29.83 "Hg10 mi
10:00 am79 °FSunny.17 mph37%29.83 "Hg10 mi
9:30 am77 °FSunny.17 mph39%29.86 "Hg10 mi
9:00 am75 °FSunny.17 mph41%29.86 "Hg10 mi
8:30 am73 °FSunny.17 mph41%29.86 "Hg10 mi
8:00 am70 °FSunny.22 mph43%29.86 "Hg10 mi
7:30 am68 °FSunny.23 mph46%29.86 "Hg10 mi
7:00 am64 °FSunny.23 mph49%29.86 "Hg10 mi
6:30 am63 °FSunny.25 mph52%29.86 "Hg10 mi
6:00 am63 °FSunny.28 mph52%29.86 "Hg10 mi
5:19 am63 °FClear.25 mph52%29.86 "Hg10 mi
4:33 am63 °FClear.25 mph52%29.83 "Hg10 mi
4:00 am64 °FClear.25 mph49%29.83 "Hg10 mi
3:30 am64 °FClear.24 mph49%29.83 "Hg10 mi
3:00 am66 °FClear.24 mph46%29.83 "Hg10 mi
2:14 am68 °FClear.26 mph43%29.83 "Hg10 mi
1:30 am70 °FClear.24 mph38%29.83 "Hg10 mi
1:03 am70 °FClear.22 mph38%29.86 "Hg10 mi
12:30 am72 °FClear.22 mph33%29.86 "Hg10 mi
12:00 am73 °FClear.21 mph29%29.86 "Hg10 mi
11:30 pm
Tue, Jan 17
75 °FClear.20 mph25%29.86 "Hg10 mi
10:30 pm77 °FClear.12 mph26%29.86 "Hg10 mi
10:00 pm72 °FClear.8 mph50%29.86 "Hg10 mi
9:30 pm73 °FClear.9 mph53%29.86 "Hg10 mi
9:00 pm73 °FClear.10 mph53%29.86 "Hg10 mi
8:30 pm75 °FClear.10 mph47%29.86 "Hg10 mi
8:00 pm75 °FClear.9 mph47%29.86 "Hg10 mi
7:30 pm77 °FClear.13 mph47%29.86 "Hg10 mi
7:00 pm79 °FSunny.10 mph42%29.83 "Hg10 mi
6:30 pm82 °FSunny.13 mph37%29.83 "Hg10 mi
6:00 pm84 °FSunny.16 mph31%29.83 "Hg10 mi
5:30 pm88 °FPassing clouds.9 mph21%29.83 "HgN/A
5:00 pm86 °FPassing clouds.8 mph24%29.83 "HgN/A
4:30 pm88 °FPassing clouds.13 mph22%29.83 "HgN/A
4:00 pm88 °FSunny.8 mph22%29.83 "Hg10 mi
3:30 pm88 °FSunny.10 mph24%29.83 "Hg10 mi
3:00 pm86 °FPassing clouds.10 mph25%29.86 "HgN/A
2:30 pm84 °FSunny.13 mph27%29.86 "Hg10 mi
2:00 pm84 °FPassing clouds.12 mph27%29.86 "HgN/A
1:30 pm82 °FPassing clouds.8 mph28%29.89 "HgN/A
1:00 pm82 °FPassing clouds.14 mph28%29.89 "HgN/A
12:30 pm81 °FSunny.12 mph32%29.89 "Hg10 mi
12:00 pm81 °FPassing clouds.13 mph32%29.92 "HgN/A
Weather by CustomWeather, © 2017

See weather overviewHow to use our weather pages